Cloud_Cover
2 5 5 4 1 5 4 0 2 2 17 12 13 43 100 100 100 100 100 100 100 100 100 52 18 0 1 4 2 5 5 10 25 82 33 36 20 9 40 78 95 22 12
0 0 0 0 4 0 0 4 2 0 3 12 5 8 68 47 20 58 58 20 13 0 0 0 0 0 2 0 0 0 5 7 39 5 6 6 31 39 72 100 5 49 5
0 0 2 0 0 0 2 0 11 0 0 0 0 1 4 0 2 1 3 1 5 0 0 0 0 0 4 0 4 8 28 82 100 100 7 7 91 88 6 10 28 14 66
0 0 0 0 0 0 0 2 5 1 0 0 3 3 0 0 0 0 0 0 5 5 7 61 83 5 6 5 11 58 85 99 95 43 96 47 10 21 22 94 100 7 7
0 0 1 0 0 0 0 0 0 0 0 1 0 1 0 1 1 0 0 0 4 4 44 74 84 81 32 13 73 100 100 100 100 100 69 75 98 74 62 50 5 5 8
0 0 0 0 0 0 5 0 0 0 1 0 0 0 0 2 0 1 0 4 2 5 6 6 7 6 76 69 28 99 100 100 100 100 82 100 87 89 14 5 30 6 11
0 0 0 0 0 2 0 0 2 0 3 0 0 7 0 0 0 0 1 5 2 4 5 5 87 72 35 92 100 93 100 100 100 100 100 96 100 100 92 61 58 100 24
0 0 0 0 0 0 0 0 5 1 0 0 4 2 0 0 0 1 1 5 5 1 1 0 2 0 0 0 0 5 100 100 100 100 100 100 100 100 100 100 62 22 5
0 0 0 0 0 0 4 0 0 0 0 4 0 0 0 0 0 0 0 5 5 5 1 0 1 4 4 4 1 13 100 100 100 100 100 81 100 100 100 100 80 5 4
0 0 0 0 0 0 0 0 0 44 100 100 78 0 0 0 0 0 0 4 3 0 0 0 0 0 28 8 29 5 33 73 100 100 92 100 100 100 98 26 31 46 4
0 0 0 0 0 0 0 0 0 4 62 97 22 0 0 0 0 0 0 0 2 12 3 26 0 5 4 94 100 75 100 70 100 73 100 100 100 100 100 6 52 5 1
28 2 0 0 0 0 0 0 0 0 0 2 0 0 0 0 0 0 0 13 100 22 100 86 96 7 5 46 100 100 31 100 100 100 100 100 100 60 45 89 16 0 0
4 0 6 0 0 0 11 0 57 0 0 1 0 0 0 90 97 0 33 46 100 80 91 33 10 0 5 8 100 99 64 100 100 100 100 100 100 57 5 0 1 0 3
0 0 2 0 3 0 17 16 3 0 33 0 81 0 6 8 32 0 58 34 90 11 3 0 0 41 3 66 100 68 90 100 100 100 100 92 41 5 0 0 0 3 5
0 0 0 0 0 18 55 91 46 15 8 85 26 73 95 14 78 1 0 5 0 12 2 0 0 40 5 0 94 89 72 100 100 96 77 6 4 0 0 0 5 5 5
0 0 0 0 0 35 0 5 0 0 0 68 100 12 19 19 1 0 36 6 6 59 0 0 0 7 12 0 0 2 0 12 2 1 0 0 0 0 0 2 5 5 86
3 0 54 0 0 32 0 19 40 0 45 73 42 0 6 0 0 0 0 0 0 0 3 2 0 0 22 1 3 5 28 2 5 0 0 0 0 3 5 5 18 94 100
1 2 0 0 0 0 0 0 0 18 55 100 100 2 0 21 0 0 61 50 0 2 4 96 6 0 0 0 20 0 0 0 0 0 0 0 3 5 6 34 100 100 100
0 12 0 0 0 0 0 0 0 0 73 100 91 2 0 0 0 0 56 0 19 0 1 0 0 16 0 0 3 38 0 0 2 0 0 0 0 3 5 5 49 98 100
0 0 20 54 0 0 0 0 0 65 7 5 5 39 0 0 0 3 4 20 79 2 0 0 4 100 0 1 10 28 5 4 5 0 0 0 5 6 49 61 33 39 74
0 0 0 100 0 0 0 0 0 4 10 78 100 11 55 0 0 44 0 0 0 0 0 0 0 4 34 0 23 0 97 2 0 0 0 2 4 5 5 7 13 5 5
2 0 0 16 0 0 0 3 0 2 100 86 62 17 8 0 0 0 0 56 100 26 0 0 0 0 9 0 5 15 28 28 0 0 0 0 0 3 0 5 5 5 5
5 0 0 0 0 0 0 0 30 0 2 5 6 96 5 1 0 29 0 0 79 1 0 0 11 0 0 0 98 0 86 11 0 0 0 0 0 4 0 5 5 0 5
1 0 0 0 0 0 0 4 100 50 9 31 59 100 5 0 0 0 0 0 8 0 0 0 95 10 0 0 0 44 0 41 0 0 0 0 0 1 0 5 5 5 11
1 6 6 0 0 0 0 1 0 4 100 100 63 97 5 0 0 35 0 0 0 3 34 0 0 0 0 0 8 0 0 73 0 0 0 0 0 0 3 5 5 4 5
8 88 56 0 0 0 0 0 0 4 65 98 86 99 46 45 59 99 73 0 0 45 69 0 33 0 0 0 0 0 0 27 0 0 0 0 0 0 0 1 2 2 1